Regional Weather Roundup
Issued by NWS Burlington, VT

Current Version | Previous Version | Text Only | Print | Product List | Glossary Off
Versions: 1 2 3 4 5 6 7 8 9 10 11 12 13 14 15 16 17 18 19 20 21 22 23 24 25 26 27 28 29 30 31 32 33 34 35 36 37 38 39 40 41 42 43 44 45 46 47 48 49 50

347
ASUS41 KBTV 302030
RWRBTV
VERMONT REGIONAL WEATHER ROUNDUP
NATIONAL WEATHER SERVICE BURLINGTON VT
400 PM EDT MON MAY 30 2016

NOTE: "FAIR" INDICATES FEW OR NO CLOUDS BELOW 12,000 FEET WITH NO
SIGNIFICANT WEATHER AND/OR OBSTRUCTIONS TO VISIBILITY.

* THESE REPORTS ARE NOT UNDER NWS QUALITY CONTROL AND/OR DO NOT
  REPORT WEATHER SUCH AS PRECIPITATION AND FOG.

VTZ001>019-302100-
_____VERMONT_____


CITY           SKY/WX    TMP DP  RH WIND       PRES   REMARKS
BURLINGTON     FAIR      85  64  49 SW16G25   29.78F
MONTPELIER     FAIR      83  60  45 SW13G21   29.87F
MORRISVILLE    PTSUNNY   83  60  45 S9        29.81F
ST. JOHNSBURY*   N/A     82  61  48 MISG      29.79F
LYNDONVILLE*   FAIR      78  63  58 SE10G17   29.83F
RUTLAND*       FAIR      82  62  50 VRB7G17   29.86F
SPRINGFIELD    FAIR      80  66  62 SE12G17   29.86F
HIGHGATE*      FAIR      84  66  54 SW9       29.77S
NEWPORT*       PTSUNNY   78  62  57 SW13G18   29.80F
BENNINGTON     FAIR      83  61  47 VRB5      29.88F
SUTTON*          N/A     77 N/A N/A MISG        N/A
MT. MANSFIELD*   N/A     68 N/A N/A NW30        N/A

_____LAKE CHAMPLAIN_____


CITY           SKY/WX    TMP DP  RH WIND       PRES   REMARKS
BURTON ISLAND*   N/A     75  64  69 SW12        N/A
COLCHESTER RF*   N/A     72  64  78 S21         N/A
DIAMOND ISL*     N/A     81  66  61 SE22        N/A

$$

NYZ007-026>031-035-052-083-087-302100-
_____NORTHERN NEW YORK_____


CITY           SKY/WX    TMP DP  RH WIND       PRES   REMARKS
PLATTSBURGH    FAIR      89  56  32 VRB7      29.77S
SARANAC LAKE   FAIR      78  52  40 W13G28    29.87R
MASSENA        FAIR      84  59  42 SW16G30   29.80F
OGDENSBURG*    SUNNY     81  59  47 SW13G24   29.82F
WATERTOWN      FAIR      75  58  55 SW13      29.88F
ALBANY         PTSUNNY   84  65  52 S12       29.86F
GLENS FALLS    FAIR      85  66  53 S13       29.83F

$$
NHZ002-005-011-302100-
_____NEW HAMPSHIRE_____


CITY           SKY/WX    TMP DP  RH WIND       PRES   REMARKS
LEBANON        FAIR      84  64  50 S14       29.83F
MT WASHINGTON  PTSUNNY   57  50  77 W21         N/A
PLYMOUTH       FAIR      81  64  56 S8        29.84F
WHITEFIELD     FAIR      83  58  42 VRB6      29.83F

$$

_____REGIONAL QUEBEC LOCATIONS_____


CITY           SKY/WX    TMP DP  RH WIND       PRES   REMARKS
MONTREAL       PTSUNNY   84  61  45 SW21G30   29.74F
QUEBEC CITY    PTSUNNY   70  63  78 VRB2      29.68S
SHERBROOKE     PTSUNNY   82  63  51 SW15G22   29.76F

_____REGIONAL ONTARIO LOCATIONS_____


CITY           SKY/WX    TMP DP  RH WIND       PRES   REMARKS
OTTAWA         PTSUNNY   84  57  39 SW16G24   29.78S

______KEY______
VSB  - VISIBILITY IN MILES
WCI  - WIND CHILL INDEX
HX   - HEAT INDEX
$$
NNNN




USA.gov is the U.S. government's official web portal to all federal, state and local government web resources and services.